Total_Precipitation_Accumulation
0.58 0.42 0.43 0.39 0.33 0.29 0.27 0.34 0.41 0.37 0.33 0.34 0.38 0.39 0.35 0.31 0.30 0.31 0.34 0.35 0.38 0.44 0.52 0.60 0.64 0.70 0.75 0.76 0.65 0.50 0.43 0.39 0.36 0.40 0.48 0.53 0.61 0.68 0.80 0.80 0.87 0.78 0.93
0.43 0.38 0.40 0.37 0.37 0.35 0.34 0.39 0.36 0.31 0.31 0.31 0.32 0.38 0.36 0.33 0.32 0.35 0.38 0.44 0.49 0.56 0.56 0.57 0.61 0.69 0.67 0.61 0.56 0.49 0.40 0.35 0.38 0.51 0.62 0.65 0.82 0.91 0.99 0.93 0.95 1.06 0.95
0.33 0.37 0.40 0.42 0.41 0.39 0.35 0.36 0.31 0.29 0.34 0.37 0.35 0.40 0.43 0.37 0.35 0.36 0.41 0.51 0.62 0.67 0.63 0.61 0.61 0.65 0.66 0.57 0.50 0.48 0.49 0.47 0.53 0.68 0.96 1.00 1.01 1.18 1.23 1.12 1.06 0.96 0.82
0.30 0.38 0.39 0.47 0.48 0.42 0.36 0.36 0.34 0.34 0.36 0.43 0.47 0.49 0.53 0.45 0.41 0.44 0.48 0.54 0.67 0.72 0.70 0.68 0.67 0.69 0.68 0.59 0.53 0.53 0.61 0.67 0.76 0.93 1.23 1.20 1.05 1.31 1.32 1.20 1.12 1.03 0.95
0.36 0.38 0.41 0.43 0.47 0.50 0.49 0.46 0.46 0.44 0.46 0.51 0.58 0.63 0.68 0.62 0.55 0.55 0.56 0.58 0.68 0.74 0.79 0.80 0.79 0.80 0.76 0.70 0.64 0.64 0.67 0.78 0.97 1.18 1.50 1.69 1.67 1.68 1.41 1.26 1.16 1.13 1.12
0.49 0.50 0.43 0.47 0.50 0.64 0.64 0.59 0.58 0.56 0.57 0.63 0.67 0.68 0.73 0.69 0.66 0.70 0.74 0.75 0.81 0.83 0.87 0.92 0.97 1.01 0.91 0.98 0.85 0.80 0.82 0.95 1.05 1.28 1.64 1.97 1.95 1.92 1.60 1.39 1.27 1.29 1.24
0.77 0.75 0.58 0.55 0.57 0.69 0.66 0.64 0.63 0.63 0.64 0.72 0.75 0.72 0.74 0.71 0.69 0.79 0.93 0.93 1.00 1.04 0.96 0.94 1.01 1.07 1.06 1.21 1.20 1.02 1.08 1.21 1.19 1.41 1.73 1.81 1.93 1.95 1.81 1.67 1.49 1.32 1.22
0.92 0.87 0.66 0.61 0.60 0.75 0.78 0.72 0.70 0.69 0.73 0.84 0.87 0.80 0.75 0.74 0.76 0.85 0.97 1.06 1.14 1.13 1.00 0.98 0.99 1.04 1.28 1.42 1.44 1.33 1.26 1.28 1.13 1.28 1.63 1.77 1.66 1.75 1.97 1.92 1.73 1.48 1.28
0.94 0.98 0.83 0.82 0.78 0.80 0.85 0.85 0.89 0.82 0.87 0.95 0.94 0.97 0.89 0.85 0.96 1.04 1.04 1.10 1.16 1.18 1.07 1.00 1.04 0.97 1.09 1.33 1.42 1.38 1.33 1.34 1.16 1.32 1.51 1.93 1.67 1.82 2.08 1.91 1.77 1.59 1.39
1.62 1.63 1.40 1.28 1.15 0.99 0.95 0.90 0.89 0.90 1.01 1.14 1.08 1.04 1.03 1.02 1.06 1.17 1.14 1.15 1.10 1.04 1.03 1.01 1.10 1.09 1.01 1.03 1.05 1.10 1.15 1.14 0.98 1.14 1.62 1.79 1.80 2.15 2.30 2.08 1.89 1.74 1.57
2.35 2.40 2.01 1.59 1.37 1.36 1.26 1.04 1.07 1.02 1.04 1.14 1.16 1.13 1.18 1.42 1.56 1.58 1.37 1.44 1.31 1.16 1.13 1.15 1.13 1.08 1.00 0.98 1.03 1.14 1.10 0.86 1.01 1.26 1.54 1.80 1.99 2.35 2.52 2.26 2.05 1.93 1.77
2.66 2.64 2.33 1.82 1.91 2.05 1.68 1.50 1.43 1.28 1.24 1.22 1.37 1.40 1.51 1.95 2.06 1.77 1.78 1.73 1.69 1.53 1.43 1.41 1.37 1.23 1.10 1.05 1.17 1.22 0.96 0.86 1.16 1.39 1.61 2.00 2.28 2.49 2.48 2.25 2.14 2.10 2.00
2.77 2.45 2.10 2.01 2.05 2.22 2.12 1.96 1.86 1.83 1.86 1.85 1.89 1.94 2.15 2.22 2.10 1.95 2.13 1.97 1.94 1.85 1.81 1.86 1.68 1.44 1.37 1.38 1.37 1.27 1.11 1.14 1.33 1.41 1.65 2.06 2.33 2.56 2.65 2.40 2.20 2.26 2.22
2.65 2.50 2.42 2.42 2.29 2.43 2.70 2.60 2.44 2.40 2.32 2.20 2.23 2.16 2.48 2.64 2.54 2.53 2.57 2.40 2.48 2.49 2.49 2.23 2.04 1.81 1.68 1.52 1.39 1.35 1.37 1.40 1.52 1.68 1.97 2.09 2.18 2.36 2.53 2.53 2.46 2.49 2.40
2.82 2.67 2.64 2.67 2.66 2.78 3.12 3.21 2.94 2.85 2.66 2.48 2.44 2.48 2.63 2.71 2.74 2.87 2.84 2.95 2.84 2.71 2.56 2.38 2.10 2.10 1.94 1.75 1.60 1.48 1.58 1.71 1.79 1.99 2.06 2.15 2.09 2.15 2.44 2.67 2.75 2.83 2.70
3.10 2.87 2.76 2.81 2.72 2.77 2.97 3.15 3.14 3.02 3.08 2.97 2.77 2.72 2.77 2.87 2.98 3.01 3.04 3.00 2.83 2.64 2.65 2.59 2.42 2.39 2.27 2.10 1.87 1.85 1.85 1.85 1.96 2.02 2.11 2.30 2.06 1.95 2.23 2.60 2.85 2.97 3.08
3.37 3.33 3.21 3.17 3.23 3.10 3.08 3.14 3.09 3.10 3.33 3.27 3.23 3.20 3.03 2.94 3.02 3.07 3.15 3.08 2.95 2.85 2.83 2.76 2.71 2.63 2.49 2.36 2.24 2.20 2.17 2.07 2.00 2.03 2.20 2.35 2.30 2.24 2.32 2.43 2.61 2.83 3.07
3.88 3.81 3.42 3.10 3.35 3.38 3.38 3.38 3.41 3.42 3.58 3.52 3.35 3.43 3.29 3.29 3.22 3.19 3.07 2.91 2.85 2.82 2.97 3.04 2.95 2.96 2.80 2.67 2.61 2.39 2.33 2.32 2.14 2.14 2.18 2.21 2.47 2.54 2.55 2.43 2.42 2.61 2.85
4.47 4.24 3.65 3.32 3.42 3.56 3.51 3.66 3.88 3.99 3.96 3.80 3.65 3.70 3.56 3.61 3.53 3.42 3.46 3.37 3.21 3.23 3.22 2.97 3.06 3.16 3.17 3.07 2.71 2.55 2.40 2.39 2.31 2.19 2.20 2.12 2.30 2.53 2.54 2.50 2.48 2.49 2.70
4.59 4.48 4.00 3.72 3.90 3.88 3.75 3.86 4.01 4.09 4.08 4.16 4.20 4.15 4.00 3.91 3.99 4.10 4.10 3.98 3.74 3.61 3.54 3.56 3.52 3.25 3.10 3.05 2.72 2.64 2.51 2.31 2.25 2.20 2.12 2.10 2.13 2.06 2.19 2.23 2.36 2.33 2.42
3.82 3.90 4.05 4.04 4.08 4.09 4.04 4.05 4.25 4.40 4.41 4.39 4.52 4.57 4.40 4.33 4.47 4.78 4.81 4.62 4.31 3.99 3.76 3.69 3.64 3.42 3.15 2.99 2.98 2.81 2.51 2.25 2.21 2.14 2.12 2.10 1.94 1.87 1.99 2.17 2.14 2.06 2.08
3.59 3.77 3.96 3.96 4.14 4.38 4.74 5.22 5.50 5.63 5.50 5.30 5.18 5.10 4.99 4.90 4.98 5.08 5.12 4.76 4.40 4.20 3.91 3.65 3.56 3.39 3.13 3.08 3.07 3.09 2.73 2.50 2.16 1.89 1.98 1.98 1.92 1.92 1.86 1.83 1.92 1.93 1.87
3.18 3.52 3.78 4.08 4.49 4.99 5.62 6.39 6.70 6.45 6.04 5.81 5.46 5.39 5.18 4.96 4.92 4.99 4.71 4.48 4.25 4.04 3.84 3.62 3.55 3.48 3.19 3.08 3.15 3.31 3.01 2.67 2.36 2.11 1.91 1.84 1.90 1.94 1.87 1.81 1.82 1.88 1.86
2.81 3.29 3.73 4.28 4.90 5.52 6.09 6.55 6.75 6.63 6.36 6.07 5.61 5.20 4.81 4.48 4.28 4.17 4.05 3.83 3.73 3.58 3.41 3.24 3.24 3.23 3.12 2.88 2.81 2.72 2.66 2.50 2.44 2.23 2.00 1.84 1.83 1.89 1.87 1.79 1.78 1.83 1.87
2.75 3.23 3.71 4.20 4.91 5.40 5.92 6.31 6.50 6.52 6.43 6.03 5.34 4.68 4.26 3.93 3.67 3.37 3.15 3.04 3.03 2.98 2.77 2.58 2.57 2.57 2.56 2.49 2.43 2.31 2.28 2.26 2.22 2.12 2.02 1.94 1.90 1.79 1.72 1.72 1.71 1.71 1.76
2.68 3.17 3.52 3.86 4.56 5.23 5.73 6.10 6.36 6.34 6.11 5.50 4.79 4.23 3.86 3.55 3.29 3.02 2.83 2.65 2.58 2.48 2.30 2.15 2.10 2.10 2.13 2.14 2.17 2.15 2.02 1.98 1.97 2.02 1.91 1.82 1.81 1.74 1.68 1.63 1.60 1.61 1.67